{"data":{"norad_id":49000,"epoch":"2026-05-25T05:18:44.845632Z","epoch_age_seconds":59131,"freshness":"FRESH","line1":"1 49000U 21060AK  26145.22135238  .00000020  00000+0  19619-4 0  9997","line2":"2 49000  87.9102 233.3400 0001842 100.5651 259.5687 13.16595558236584","mean_motion":13.16595558,"eccentricity":0.0001842,"inclination_deg":87.9102,"raan_deg":233.34,"arg_perigee_deg":100.5651,"mean_anomaly_deg":259.5687,"bstar":1.9619e-5,"rev_number":23658,"period_min":109.37299546927,"perigee_km":1196.3561976293,"apogee_km":1199.1471550176,"semimajor_km":7575.8886763234,"source":"CELESTRAK","updated_at":"2026-05-25T13:38:22.479615Z"}}